Regional Weather Roundup
Issued by NWS

Home | Current Version | Previous Version | Graphics & Text | Print | Product List | Glossary On
Versions: 1 2 3 4 5 6 7 8 9 10 11 12 13 14 15 16 17 18 19 20 21 22 23 24 25 26 27
000
ASUS45 KTFX 300210
RWRMT
MONTANA REGIONAL WEATHER ROUNDUP
NATIONAL WEATHER SERVICE GREAT FALLS MT
800 PM MDT FRI APR 29 2016

NOTE: "FAIR" INDICATES FEW OR NO CLOUDS BELOW 12000 FEET WITH NO
SIGNIFICANT WEATHER AND/OR OBSTRUCTIONS TO VISIBILITY.

MTZ001>007-043-300300-
WEST OF THE DIVIDE

CITY           SKY/WX    TMP DP  RH WIND       PRES   REMARKS
KALISPELL      CLOUDY    50  35  56 CALM      29.96R
MISSOULA       CLOUDY    49  35  58 N10       29.96R
BUTTE          LGT RAIN  40  36  86 N5        29.92R
MULLAN PASS    SNOW      32  32 100 NW3       29.96R VSB 1/4
ANACONDA         N/A     45  34  65 N7        29.92R
DEER LODGE       N/A     43  36  75 NW12      29.94R
EUREKA           N/A     52  36  54 CALM      29.98R
HAMILTON         N/A     48  34  57 N7        29.94R
LIBBY            N/A     48  39  71 CALM      29.98R
PLAINS           N/A     51  38  61 CALM      29.97R
$$

MTZ008-052>055-300300-
SOUTHWEST MONTANA

CITY           SKY/WX    TMP DP  RH WIND       PRES   REMARKS
BOZEMAN        CLOUDY    47  32  56 SE14      29.91R
DILLON         CLOUDY    44  35  70 NW8       29.87R
ENNIS          MOCLDY    48  32  53 NE7G13    29.90S
THREE FORKS      N/A     48  21  34 SE7       29.91R
TWIN BRIDGES     N/A     51  31  46 N12       29.87R
$$

MTZ009-010-012-014-046-048-049-054-300300-
EAST SLOPES AND CENTRAL MONTANA

CITY           SKY/WX    TMP DP  RH WIND       PRES   REMARKS
CUT BANK       CLOUDY    46  35  65 SE10      29.99R
GREAT FALLS    CLOUDY    48  35  60 NE10      29.96R
HELENA         CLOUDY    51  32  48 N12       29.90R
CHOTEAU          N/A     45  36  70 E12       29.98R
CONRAD           N/A     47  41  80 NE9       30.01R
$$

MTZ011-013-016-021-045-047-050-051-300300-
NORTH CENTRAL MONTANA

CITY           SKY/WX    TMP DP  RH WIND       PRES   REMARKS
HAVRE          CLOUDY    49  38  65 SE18      30.03R
LEWISTOWN      CLOUDY    45  32  60 SE14      30.00R
N BAR RANCH    CLOUDY    41  34  75 VRB3      30.03R
CHINOOK          N/A     50  39  66 E5        30.05R
$$

MTZ017>020-022>027-061-062-300300-
NORTHEAST MONTANA

CITY           SKY/WX    TMP DP  RH WIND       PRES   REMARKS
GLASGOW        CLOUDY    53  36  52 SE12      30.07S
JORDAN           N/A     50  38  63 SE9       30.05R
SIDNEY         CLEAR     54  32  43 E5        30.10R
WOLF POINT     CLOUDY    56  33  42 E7        30.09S
PLENTYWOOD       N/A     55  27  33 SE7       30.12R
POPLAR           N/A     54  32  43 E5        30.10S
SCOBEY           N/A     52  23  32 SE7       30.10R
$$

MTZ028>42-056>058-300300-
SOUTHCENTRAL AND SOUTHEAST MONTANA

CITY           SKY/WX    TMP DP  RH WIND       PRES   REMARKS
BAKER          CLOUDY    48  36  63 E3        30.07S
BILLINGS       CLOUDY    47  34  60 E9        29.99R
LIVINGSTON     CLOUDY    44  32  62 E15G24    29.94R
MILES CITY     CLOUDY    50  33  52 E8        30.05S
EKALAKA          N/A     44  32  63 E5        30.02S
FORSYTH          N/A     48  37  66 E10G16    30.04R
LAUREL           N/A     47  30  51 NE2       29.97
ROUNDUP          N/A     47  31  54 E1        29.93R
$$

REGIONAL REPORTS...DAKOTAS

CITY           SKY/WX    TMP DP  RH WIND       PRES   REMARKS
WILLISTON      CLEAR     54  27  35 E10       30.11S
MINOT          CLEAR     55  26  32 E8        30.14S
DICKINSON      CLEAR     46  30  53 E8        30.06S
BEACH          CLOUDY    48  32  53 CALM      30.11R
CROSBY           N/A     48  23  37 E8        30.16S
WATFORD CITY     N/A     52  28  40 E7        30.11R
BISMARCK       PTCLDY    53  35  50 E8        30.10R
GRAND FORKS    PTCLDY    55  30  38 NE15      30.16S
FARGO          CLEAR     58  32  37 NE13      30.10R
BUFFALO SD       N/A     46  34  62 SE12      29.99R
RAPID CITY     CLOUDY    42  36  79 E9        30.04R
$$

REGIONAL REPORTS...WYOMING/IDAHO/WASHINGTON

CITY           SKY/WX    TMP DP  RH WIND       PRES   REMARKS
GILLETTE       LGT RAIN  40  37  89 E7        30.00R
SHERIDAN       CLOUDY    44  36  73 E6        30.00R
BUFFALO WY       N/A    N/A N/A N/A MISG      30.00R
CODY           CLOUDY    41  32  70 W7        29.96R
YELLOWSTONE LA   N/A     34  26  72 CALM      29.93R
IDAHO FALLS    CLEAR     48  36  63 S6        29.85R
SALMON         CLOUDY    48  34  57 W3        29.89R
BOISE          PTCLDY    56  37  49 NW17G26   29.87R
SPOKANE        CLOUDY    51  43  74 W8        29.99R
$$

REGIONAL REPORTS...ALBERTA

CITY           SKY/WX    TMP DP  RH WIND       PRES   REMARKS
EDMONTON       CLEAR     57  32  38 S13G20    30.00R
CALGARY        MOCLDY    46  30  53 S13       30.00R
LETHBRIDGE     CLOUDY    48  36  61 E7        30.01R
MEDICINE HAT   CLOUDY    50  39  66 S8        30.04R
$$

REGIONAL REPORTS...SASKATCHEWAN

CITY           SKY/WX    TMP DP  RH WIND       PRES   REMARKS
SWIFT CURRENT  CLOUDY    54  25  32 SE10      30.07R
REGINA         PTCLDY    54  16  22 SE13      30.16R
SASKATOON      CLEAR     59  16  18 SE13      30.15R
$$




USA.gov is the U.S. government's official web portal to all federal, state and local government web resources and services.